EW8085 Weather Reports


time (UTC)temp
C
wind
direction
speed
KPH
gust
KPH
rain 1hr
cm
rain 24hr
cm
rain mn
cm
humidity
%
barometer
mb
20260510194011 30 304 3.2 20.9 0.00 0.05 0.03 73 1014.2
20260510193511 30 284 9.7 20.9 0.00 0.05 0.03 72 1014.2
20260510193012 30 299 8.0 29.0 0.00 0.05 0.03 72 1014.2
20260510192515 31 331 6.4 29.0 0.00 0.05 0.03 72 1014.4
20260510192010 31 288 8.0 25.7 0.00 0.05 0.03 72 1014.3
20260510191510 31 229 4.8 20.9 0.00 0.05 0.03 71 1014.1
20260510191010 31 306 4.8 24.1 0.00 0.05 0.03 72 1014.1
20260510190509 31 281 14.5 29.0 0.00 0.05 0.03 71 1014.0
20260510190014 31 271 11.3 29.0 0.00 0.05 0.03 70 1014.0
20260510185508 31 229 6.4 29.0 0.00 0.05 0.03 71 1014.1
20260510185007 31 202 12.9 29.0 0.00 0.05 0.03 72 1014.1
20260510184508 31 292 14.5 27.4 0.00 0.05 0.03 70 1014.1
20260510184008 31 236 12.9 25.7 0.00 0.05 0.03 69 1014.1
20260510183516 31 217 4.8 22.5 0.00 0.05 0.03 70 1014.2
20260510183008 31 360 4.8 22.5 0.00 0.05 0.03 71 1014.2
20260510182516 31 282 6.4 24.1 0.00 0.05 0.03 72 1014.2
20260510182008 31 284 9.7 24.1 0.00 0.05 0.03 71 1014.2
20260510181508 31 200 6.4 24.1 0.00 0.05 0.03 72 1014.3
20260510181010 31 304 6.4 22.5 0.00 0.05 0.03 70 1014.3
20260510180507 31 340 9.7 22.5 0.00 0.05 0.03 70 1014.4
20260510180008 31 274 8.0 20.9 0.00 0.05 0.03 70 1014.4
20260510175507 32 313 4.8 17.7 0.00 0.05 0.03 69 1014.4
20260510175006 32 229 6.4 19.3 0.00 0.05 0.03 69 1014.4
20260510174505 32 239 4.8 24.1 0.00 0.05 0.03 70 1014.4
20260510174006 32 305 8.0 22.5 0.00 0.05 0.03 70 1014.6
20260510173505 32 209 9.7 22.5 0.00 0.05 0.03 72 1014.6
20260510173005 31 324 4.8 24.1 0.00 0.05 0.03 72 1014.7
20260510172507 31 313 11.3 29.0 0.00 0.05 0.03 73 1014.6
20260510172004 31 294 14.5 29.0 0.00 0.05 0.03 72 1014.7
20260510171506 31 324 12.9 22.5 0.00 0.05 0.03 71 1014.7
20260510171004 32 298 8.0 24.1 0.00 0.05 0.03 68 1014.8
20260510170505 32 294 9.7 24.1 0.00 0.05 0.03 68 1014.7
20260510170002 32 302 8.0 20.9 0.00 0.05 0.03 69 1014.8
20260510165505 32 326 8.0 20.9 0.00 0.05 0.03 67 1014.7
20260510165001 32 188 4.8 20.9 0.00 0.05 0.03 67 1014.9
20260510164506 31 303 9.7 24.1 0.00 0.05 0.03 62 1014.8
20260510164002 32 315 11.3 24.1 0.00 0.05 0.03 61 1014.8
20260510163501 32 245 4.8 17.7 0.00 0.05 0.03 65 1014.7
20260510163157 32 233 4.8 17.7 0.00 0.05 0.03 67 1014.8
20260510162601 32 290 6.4 20.9 0.00 0.05 0.03 66 1014.8
20260510162100 32 307 8.0 20.9 0.00 0.05 0.03 68 1014.7
20260510161558 32 273 4.8 16.1 0.00 0.05 0.03 65 1014.8
20260510161058 31 219 3.2 8.0 0.00 0.05 0.03 67 1014.9
20260510160557 31 221 1.6 14.5 0.00 0.05 0.03 65 1014.9
20260510160100 31 277 4.8 16.1 0.00 0.05 0.03 65 1014.9
20260510155557 31 266 8.0 16.1 0.00 0.05 0.03 65 1015.0
20260510155056 32 256 3.2 12.9 0.00 0.05 0.03 65 1015.0
20260510154556 32 215 1.6 9.7 0.00 0.05 0.03 61 1015.0
20260510154055 32 187 3.2 12.9 0.00 0.05 0.03 63 1014.9
20260510153555 32 208 4.8 12.9 0.00 0.05 0.03 61 1014.9
20260510153103 32 215 4.8 12.9 0.00 0.05 0.03 63 1014.8
20260510152553 31 193 1.6 12.9 0.00 0.05 0.03 65 1014.8
20260510152053 31 260 3.2 14.5 0.00 0.05 0.03 65 1014.8
20260510151618 31 192 4.8 12.9 0.00 0.05 0.03 65 1014.9
20260510151051 31 207 0.0 12.9 0.00 0.05 0.03 68 1014.8
20260510150551 31 235 4.8 12.9 0.00 0.05 0.03 67 1014.9
20260510150057 31 187 3.2 9.7 0.00 0.05 0.03 69 1014.9
20260510145547 31 167 1.6 11.3 0.00 0.05 0.03 69 1014.8
20260510145046 30 153 4.8 12.9 0.00 0.05 0.03 70 1014.8
20260510144556 30 175 4.8 12.9 0.00 0.05 0.03 70 1014.8
20260510144047 30 196 3.2 11.3 0.00 0.05 0.03 70 1014.9
20260510143546 30 249 3.2 14.5 0.00 0.05 0.03 71 1015.0
20260510143058 30 209 3.2 14.5 0.00 0.05 0.03 72 1014.9
20260510142543 30 227 4.8 14.5 0.00 0.05 0.03 73 1014.9
20260510142042 29 186 6.4 14.5 0.00 0.05 0.03 74 1014.7
20260510141540 29 194 4.8 11.3 0.00 0.05 0.03 75 1014.7
20260510141039 28 200 1.6 8.0 0.00 0.05 0.03 76 1014.8
20260510140540 28 160 4.8 12.9 0.00 0.05 0.03 77 1014.7
20260510140036 28 192 4.8 12.9 0.00 0.05 0.03 78 1014.6
20260510135535 28 226 4.8 11.3 0.00 0.05 0.03 78 1014.6
20260510135035 27 121 4.8 14.5 0.00 0.05 0.03 79 1014.5
20260510134534 27 146 4.8 14.5 0.00 0.05 0.03 78 1014.5
20260510134033 27 192 3.2 16.1 0.00 0.05 0.03 79 1014.6
20260510133533 27 189 6.4 16.1 0.00 0.05 0.03 79 1014.7
20260510133031 27 158 6.4 14.5 0.00 0.05 0.03 80 1014.7
20260510132531 27 180 4.8 14.5 0.00 0.05 0.03 80 1014.6
20260510132029 27 130 4.8 14.5 0.00 0.05 0.03 81 1014.6
20260510131529 26 120 6.4 14.5 0.00 0.05 0.03 82 1014.4
20260510131026 26 151 4.8 12.9 0.00 0.05 0.03 82 1014.5
20260510130525 26 136 4.8 12.9 0.00 0.05 0.03 83 1014.5
20260510130023 26 135 1.6 11.3 0.00 0.05 0.03 84 1014.4
20260510125522 25 132 3.2 9.7 0.00 0.05 0.03 84 1014.4
20260510125021 25 161 4.8 12.9 0.00 0.05 0.03 85 1014.4
20260510124530 25 137 3.2 11.3 0.00 0.05 0.03 85 1014.4
20260510124022 25 113 6.4 11.3 0.00 0.05 0.03 86 1014.3
20260510123521 25 138 1.6 14.5 0.00 0.05 0.03 87 1014.3
20260510123019 25 126 6.4 14.5 0.00 0.05 0.03 88 1014.2
20260510122519 24 157 6.4 12.9 0.00 0.05 0.03 89 1014.2
20260510122020 24 117 1.6 11.3 0.00 0.05 0.03 90 1014.1
20260510121519 24 166 3.2 11.3 0.00 0.05 0.03 90 1014.1
20260510121017 23 140 1.6 11.3 0.00 0.05 0.03 91 1014.0
20260510120517 23 123 1.6 11.3 0.00 0.05 0.03 91 1013.9
20260510120015 23 152 4.8 11.3 0.00 0.05 0.03 91 1013.9
20260510115514 23 123 3.2 11.3 0.00 0.05 0.03 92 1013.8
20260510115015 23 138 4.8 11.3 0.00 0.05 0.03 92 1013.7
20260510114514 23 147 3.2 9.7 0.00 0.05 0.03 92 1013.7
20260510114013 23 124 1.6 8.0 0.00 0.05 0.03 92 1013.6
20260510113512 23 138 3.2 8.0 0.00 0.05 0.03 92 1013.5
20260510113012 23 136 3.2 11.3 0.00 0.05 0.03 92 1013.5
20260510112514 23 138 3.2 11.3 0.00 0.05 0.03 92 1013.4
20260510112113 23 132 3.2 8.0 0.00 0.05 0.03 92 1013.4
20260510111513 23 157 1.6 8.0 0.00 0.05 0.03 92 1013.2
20260510111012 23 141 0.0 4.8 0.00 0.05 0.03 92 1013.1
20260510110512 23 135 1.6 6.4 0.00 0.05 0.03 92 1013.1
20260510110011 23 129 1.6 6.4 0.00 0.05 0.03 92 1012.9
20260510105511 23 128 3.2 6.4 0.00 0.05 0.03 92 1012.7
20260510105012 23 125 1.6 8.0 0.00 0.05 0.03 91 1012.8
20260510104510 23 125 1.6 8.0 0.00 0.05 0.03 91 1012.7
20260510104011 23 141 1.6 4.8 0.00 0.05 0.03 91 1012.7
20260510103514 23 142 1.6 4.8 0.00 0.05 0.03 91 1012.8
20260510103010 23 142 0.0 0.0 0.00 0.05 0.03 91 1012.8
20260510102510 23 142 0.0 0.0 0.00 0.05 0.03 91 1012.8
20260510102010 23 142 0.0 0.0 0.00 0.05 0.03 91 1012.7
20260510101508 23 142 0.0 0.0 0.00 0.05 0.03 91 1012.6
20260510101009 23 142 0.0 4.8 0.00 0.05 0.03 91 1012.5
20260510100508 23 142 0.0 6.4 0.00 0.05 0.03 91 1012.3
20260510100015 23 142 1.6 6.4 0.00 0.05 0.03 91 1012.1
20260510095508 23 119 1.6 4.8 0.00 0.05 0.03 90 1012.2
20260510095007 23 117 1.6 4.8 0.00 0.05 0.03 90 1012.3
20260510094507 23 117 0.0 4.8 0.00 0.05 0.03 90 1012.2
20260510094007 23 117 0.0 4.8 0.00 0.05 0.03 90 1012.2
20260510093507 23 116 0.0 3.2 0.00 0.05 0.03 90 1012.2
20260510093007 23 116 0.0 4.8 0.00 0.05 0.03 90 1012.1
20260510092507 23 116 0.0 4.8 0.00 0.05 0.03 90 1011.9
20260510092006 23 115 0.0 4.8 0.00 0.05 0.03 90 1011.8
20260510091506 23 115 1.6 4.8 0.00 0.05 0.03 90 1011.9
20260510091005 23 115 1.6 4.8 0.00 0.05 0.03 90 1011.8
20260510090506 23 115 0.0 3.2 0.00 0.05 0.03 89 1011.8
20260510090006 23 115 0.0 1.6 0.00 0.05 0.03 89 1011.8
20260510085505 23 115 0.0 6.4 0.00 0.05 0.03 89 1011.7
20260510085004 23 115 1.6 6.4 0.00 0.05 0.03 89 1011.6
20260510084504 23 127 0.0 4.8 0.00 0.05 0.03 89 1011.6
20260510084003 23 130 0.0 4.8 0.00 0.05 0.03 89 1011.5
20260510083503 23 130 0.0 4.8 0.00 0.05 0.03 89 1011.5
20260510083012 23 130 1.6 4.8 0.00 0.05 0.03 89 1011.4
20260510082504 23 130 1.6 4.8 0.00 0.05 0.03 89 1011.5
20260510082004 23 130 1.6 4.8 0.00 0.05 0.03 89 1011.5
20260510081503 23 130 1.6 8.0 0.00 0.05 0.03 89 1011.4
20260510081002 23 130 1.6 8.0 0.00 0.05 0.03 89 1011.3
20260510080502 23 134 3.2 9.7 0.00 0.05 0.03 89 1011.3
20260510080106 23 123 3.2 11.3 0.00 0.05 0.03 89 1011.3
20260510075559 23 124 1.6 11.3 0.00 0.05 0.03 89 1011.3
20260510075100 23 101 1.6 8.0 0.00 0.05 0.03 88 1011.4
20260510074600 23 107 3.2 8.0 0.00 0.05 0.03 88 1011.4
20260510074058 23 121 1.6 8.0 0.00 0.05 0.03 88 1011.5
20260510073557 23 132 4.8 8.0 0.00 0.05 0.03 88 1011.5
20260510073105 24 142 1.6 6.4 0.00 0.05 0.03 88 1011.7
20260510072557 24 142 1.6 11.3 0.00 0.05 0.03 88 1011.7
20260510072059 24 109 4.8 11.3 0.00 0.05 0.03 89 1011.7
20260510071556 24 117 3.2 12.9 0.00 0.05 0.03 89 1011.7
20260510071054 24 111 6.4 12.9 0.00 0.05 0.03 89 1011.8
20260510070554 24 126 3.2 12.9 0.00 0.05 0.03 89 1011.8
20260510070055 24 130 4.8 12.9 0.00 0.05 0.03 89 1011.9
20260510065553 24 131 3.2 8.0 0.00 0.05 0.03 89 1012.1
20260510065053 23 125 1.6 9.7 0.00 0.05 0.03 89 1012.0
20260510064553 23 142 1.6 9.7 0.00 0.05 0.03 90 1012.1
20260510064050 23 123 3.2 11.3 0.00 0.05 0.03 90 1012.2
20260510063552 23 131 3.2 9.7 0.00 0.05 0.03 90 1012.3
20260510063051 23 121 3.2 9.7 0.00 0.05 0.03 90 1012.3
20260510062550 23 97 1.6 3.2 0.03 0.05 0.03 91 1012.4
20260510062050 23 97 0.0 6.4 0.03 0.05 0.03 91 1012.3
20260510061551 23 97 1.6 6.4 0.03 0.05 0.03 91 1012.4
20260510061051 23 111 1.6 6.4 0.03 0.05 0.03 91 1012.4
20260510060550 23 13 0.0 0.0 0.03 0.05 0.03 91 1012.4
20260510060050 23 13 0.0 0.0 0.03 0.05 0.03 90 1012.5
20260510055546 24 13 0.0 0.0 0.03 0.05 0.03 90 1012.6
20260510055048 24 13 0.0 0.0 0.03 0.05 0.03 90 1012.7
20260510054545 24 13 0.0 0.0 0.03 0.05 0.03 90 1012.8
20260510054044 24 13 0.0 0.0 0.03 0.05 0.03 90 1012.8
20260510053542 24 13 0.0 0.0 0.03 0.05 0.03 90 1012.9
20260510053042 24 13 0.0 0.0 0.03 0.05 0.03 90 1013.0
20260510052541 24 13 0.0 0.0 0.00 0.03 0.00 90 1013.1
20260510052044 24 13 0.0 0.0 0.00 0.03 0.00 90 1013.1
20260510051546 24 13 0.0 0.0 0.00 0.03 0.00 90 1013.1
20260510051041 24 13 0.0 0.0 0.00 0.03 0.00 90 1013.2
20260510050540 24 13 0.0 0.0 0.00 0.03 0.00 90 1013.1
20260510050040 24 13 0.0 3.2 0.00 0.03 0.00 90 1013.1
20260510045539 24 13 0.0 3.2 0.00 0.03 0.00 90 1013.1
20260510045039 25 9 0.0 4.8 0.00 0.03 0.00 90 1013.1
20260510044537 25 9 0.0 4.8 0.00 0.03 0.00 90 1013.2
20260510044035 25 5 0.0 1.6 0.00 0.03 0.00 90 1013.2
20260510043535 25 5 0.0 1.6 0.00 0.03 0.00 90 1013.3
20260510043034 25 5 0.0 1.6 0.00 0.03 0.00 90 1013.3
20260510042534 25 5 0.0 4.8 0.00 0.03 0.00 90 1013.4
20260510042032 25 5 1.6 4.8 0.00 0.03 0.00 90 1013.4
20260510041532 25 155 0.0 0.0 0.00 0.03 0.00 90 1013.5
20260510041031 25 155 0.0 0.0 0.00 0.03 0.00 90 1013.5
20260510040531 25 156 0.0 0.0 0.00 0.03 0.00 90 1013.5
20260510040030 25 156 0.0 0.0 0.00 0.03 0.00 90 1013.4
20260510035529 25 156 0.0 0.0 0.03 0.03 0.03 89 1013.4
20260510035029 25 156 0.0 0.0 0.03 0.03 0.03 89 1013.4
20260510034531 25 156 0.0 0.0 0.03 0.03 0.03 88 1013.5
20260510034029 25 156 0.0 0.0 0.03 0.03 0.03 88 1013.3
20260510033528 25 156 0.0 0.0 0.03 0.03 0.03 87 1013.2
20260510033028 26 156 0.0 0.0 0.03 0.03 0.03 87 1013.1
20260510032528 26 156 0.0 0.0 0.03 0.03 0.03 87 1013.1
20260510032028 26 156 0.0 0.0 0.03 0.03 0.03 87 1013.0
20260510031529 26 156 0.0 0.0 0.03 0.03 0.03 86 1013.0
20260510031031 26 156 0.0 0.0 0.03 0.03 0.03 86 1013.1
20260510030532 26 156 0.0 0.0 0.03 0.03 0.03 86 1013.1
20260510030027 26 156 0.0 0.0 0.03 0.03 0.03 85 1013.1
20260510025529 26 156 0.0 0.0 0.00 0.00 0.00 85 1013.0
20260510025027 26 156 0.0 0.0 0.00 0.00 0.00 85 1013.0
20260510024529 26 156 0.0 0.0 0.00 0.00 0.00 84 1012.9
20260510024027 26 156 0.0 0.0 0.00 0.00 0.00 84 1013.0
20260510023529 26 156 0.0 0.0 0.00 0.00 0.00 84 1012.9
20260510023027 26 156 0.0 6.4 0.00 0.00 0.00 83 1013.0
20260510022526 26 178 0.0 6.4 0.00 0.00 0.00 83 1012.9
20260510022027 26 280 0.0 1.6 0.00 0.00 0.00 82 1012.9
20260510021527 26 280 0.0 1.6 0.00 0.00 0.00 82 1013.0
20260510021026 26 280 0.0 0.0 0.00 0.00 0.00 82 1012.8
20260510020530 26 280 0.0 0.0 0.00 0.00 0.00 82 1012.8
20260510020025 26 280 0.0 0.0 0.00 0.00 0.00 81 1012.7
20260510015525 26 280 0.0 0.0 0.00 0.00 0.00 81 1012.5
20260510015025 26 280 0.0 0.0 0.00 0.00 0.00 81 1012.6
20260510014526 26 280 0.0 1.6 0.00 0.00 0.00 81 1012.4
20260510014025 26 280 0.0 1.6 0.00 0.00 0.00 81 1012.4
20260510013526 26 280 0.0 1.6 0.00 0.00 0.00 81 1012.3
20260510013026 26 280 0.0 1.6 0.00 0.00 0.00 81 1012.5
20260510012525 26 280 0.0 1.6 0.00 0.00 0.00 80 1012.3
20260510012026 26 280 0.0 1.6 0.00 0.00 0.00 80 1012.2
20260510011537 26 280 0.0 1.6 0.00 0.00 0.00 80 1012.2
20260510011024 26 279 0.0 1.6 0.00 0.00 0.00 80 1012.2
20260510010525 26 279 0.0 1.6 0.00 0.00 0.00 80 1012.1
20260510010023 26 279 0.0 3.2 0.00 0.00 0.00 80 1012.0
20260510005524 26 279 0.0 4.8 0.00 0.00 0.00 80 1012.0
20260510005027 26 279 0.0 6.4 0.00 0.00 0.00 80 1011.9
20260510004524 26 267 0.0 4.8 0.00 0.00 0.00 80 1012.0
20260510004023 26 259 1.6 6.4 0.00 0.00 0.00 80 1012.0
20260510003523 26 259 1.6 6.4 0.00 0.00 0.00 79 1011.9
20260510003025 26 284 1.6 8.0 0.00 0.00 0.00 79 1011.8
20260510002524 27 298 3.2 8.0 0.00 0.00 0.00 79 1011.8
20260510002023 27 309 1.6 12.9 0.00 0.00 0.00 79 1011.7
20260510001526 27 297 1.6 12.9 0.00 0.00 0.00 79 1011.7
20260510001022 27 268 4.8 11.3 0.00 0.00 0.00 78 1011.7
20260510000522 27 296 3.2 8.0 0.00 0.00 0.00 78 1011.7
20260510000039 27 277 3.2 8.0 0.00 0.00 0.00 77 1011.8
20260509235523 27 284 1.6 11.3 0.00 0.00 0.00 77 1011.5
20260509235024 27 299 1.6 11.3 0.00 0.00 0.00 77 1011.4
20260509234527 27 280 3.2 12.9 0.00 0.00 0.00 77 1011.3
20260509234022 27 296 3.2 12.9 0.00 0.00 0.00 76 1011.4
20260509233524 27 238 1.6 11.3 0.00 0.00 0.00 75 1011.5
20260509233021 27 306 4.8 16.1 0.00 0.00 0.00 75 1011.5
20260509232523 27 293 8.0 17.7 0.00 0.00 0.00 75 1011.3
20260509232021 27 270 6.4 17.7 0.00 0.00 0.00 74 1011.3
20260509231520 27 280 3.2 20.9 0.00 0.00 0.00 74 1011.3
20260509231020 27 315 11.3 20.9 0.00 0.00 0.00 73 1011.2
20260509230520 28 296 4.8 17.7 0.00 0.00 0.00 73 1011.1
20260509230020 28 284 8.0 16.1 0.00 0.00 0.00 73 1011.2
20260509225520 28 301 4.8 17.7 0.00 0.00 0.00 72 1011.1
20260509225019 28 284 9.7 20.9 0.00 0.00 0.00 71 1011.1
20260509224519 28 287 6.4 22.5 0.00 0.00 0.00 70 1011.0
20260509224019 28 309 11.3 22.5 0.00 0.00 0.00 69 1011.0
20260509223519 29 292 3.2 17.7 0.00 0.00 0.00 68 1010.9
20260509223018 29 294 6.4 17.7 0.00 0.00 0.00 66 1010.9
20260509222519 30 296 3.2 19.3 0.00 0.00 0.00 65 1010.8
20260509222018 30 300 1.6 12.9 0.00 0.00 0.00 62 1010.8
20260509221519 30 177 4.8 12.9 0.00 0.00 0.00 62 1010.7
20260509221019 30 307 3.2 16.1 0.00 0.00 0.00 61 1010.6
20260509220518 30 304 4.8 14.5 0.00 0.00 0.00 60 1010.6
20260509220020 30 312 1.6 12.9 0.00 0.00 0.00 61 1010.6
20260509215518 30 199 3.2 12.9 0.00 0.00 0.00 60 1010.6
20260509215020 30 205 3.2 12.9 0.00 0.00 0.00 59 1010.4
20260509214526 30 290 3.2 11.3 0.00 0.00 0.00 59 1010.4
20260509214017 31 284 3.2 16.1 0.00 0.00 0.00 58 1010.4
20260509213517 31 278 4.8 16.1 0.00 0.00 0.00 56 1010.4
20260509213018 31 203 4.8 17.7 0.00 0.00 0.00 54 1010.3
20260509212516 32 219 8.0 17.7 0.00 0.00 0.00 53 1010.4
20260509212017 32 205 4.8 17.7 0.00 0.00 0.00 50 1010.2
20260509211519 32 212 8.0 20.9 0.00 0.00 0.00 49 1010.2
20260509211017 33 316 4.8 20.9 0.00 0.00 0.00 47 1010.2
20260509210517 33 206 3.2 14.5 0.00 0.00 0.00 48 1010.1
20260509210016 33 240 4.8 12.9 0.00 0.00 0.00 48 1010.0
20260509205516 33 257 3.2 19.3 0.00 0.00 0.00 49 1009.9
20260509205015 33 184 4.8 17.7 0.00 0.00 0.00 49 1010.0
20260509204523 33 250 4.8 16.1 0.00 0.00 0.00 49 1009.9
20260509204021 33 234 3.2 20.9 0.00 0.00 0.00 49 1009.9
20260509203514 33 238 6.4 22.5 0.00 0.00 0.00 49 1010.0
20260509203014 33 275 6.4 22.5 0.00 0.00 0.00 50 1010.0
20260509202513 33 206 6.4 20.9 0.00 0.00 0.00 50 1009.8
20260509202014 33 284 6.4 17.7 0.00 0.00 0.00 51 1009.9
20260509201512 33 215 6.4 16.1 0.00 0.00 0.00 51 1010.0
20260509201014 33 243 8.0 16.1 0.00 0.00 0.00 52 1010.1
20260509200516 33 186 3.2 19.3 0.00 0.00 0.00 54 1010.1
20260509200013 32 246 8.0 17.7 0.00 0.00 0.00 54 1010.1
20260509195511 33 168 4.8 17.7 0.00 0.00 0.00 53 1010.0
20260509195012 33 187 6.4 17.7 0.00 0.00 0.00 53 1010.1
20260509194511 33 221 8.0 12.9 0.00 0.00 0.00 53 1010.1